This demonstration page uses our WeatherBlox Daily Observations layout. Learn more.

Left ArrowRight Arrow

Hourly Observations for July 17, 2017

Temp ( °F °C ) Dew Point ( °F °C ) Humidity (%) Winds ( mph kmh ) Pressure ( in mb ) Visibility ( mi km ) Precip ( " mm )
12:53 am 00:53 Clear 80 26.7 41 5 25 25 Calm 29.77 1008 10 16 0.00 0.00
1:53 am 01:53 Clear 78 25.6 46 7.8 32 32 NNW 6 9 29.76 1008 10 16 0.00 0.00
2:53 am 02:53 Clear 74 23.3 47 8.3 38 38 Calm 29.76 1008 10 16 0.00 0.00
3:53 am 03:53 Clear 71 21.7 48 8.9 44 44 Calm 29.76 1008 10 16 0.00 0.00
4:53 am 04:53 Clear 69 20.6 48 8.9 47 47 Calm 29.77 1008 10 16 0.00 0.00
5:53 am 05:53 Clear 67 19.4 49 9.4 53 53 Calm 29.78 1008 10 16 0.00 0.00
6:53 am 06:53 Sunny 69 20.6 47 8.3 45 45 Calm 29.79 1009 10 16 0.00 0.00
7:53 am 07:53 Sunny 75 23.9 47 8.3 37 37 Calm 29.79 1009 10 16 0.00 0.00
8:53 am 08:53 Sunny 83 28.3 45 7.2 26 26 Calm 29.79 1009 10 16 0.00 0.00
9:53 am 09:53 Sunny 89 31.7 46 7.8 23 23 VRB 3 6 29.79 1009 10 16 0.00 0.00
10:53 am 10:53 Sunny 93 33.9 42 5.6 17 17 VRB 5 7 29.78 1009 10 16 0.00 0.00
11:53 am 11:53 Sunny 95 35 43 6.1 17 17 S 5 7 29.78 1009 10 16 0.00 0.00
12:53 pm 12:53 Sunny 97 36.1 38 3.3 13 13 Calm 29.77 1008 10 16 0.00 0.00
1:53 pm 13:53 Sunny 99 37.2 39 3.9 12 12 S 8 13 29.75 1008 10 16 0.00 0.00
2:53 pm 14:53 Sunny 101 38.3 34 1.1 10 10 SE 12 19 29.74 1007 10 16 0.00 0.00
3:53 pm 15:53 Sunny 102 38.9 31 -0.6 8 8 SSE 15 24 29.72 1007 10 16 0.00 0.00
4:53 pm 16:53 Sunny 103 39.4 29 -1.7 7 7 SE 15 24 29.72 1006 10 16 0.00 0.00
5:53 pm 17:53 Sunny 102 38.9 39 3.9 11 11 SSE 15 24 29.71 1006 10 16 0.00 0.00
6:53 pm 18:53 Sunny 100 37.8 33 0.6 10 10 S 14 22 29.71 1006 10 16 0.00 0.00
7:53 pm 19:53 Sunny 95 35 49 9.4 21 21 S 12 19 29.72 1006 10 16 0.00 0.00
8:53 pm 20:53 Clear 91 32.8 53 11.7 27 27 S 7 11 29.72 1007 10 16 0.00 0.00
9:53 pm 21:53 Clear 90 32.2 53 11.7 28 28 SW 7 11 29.74 1007 10 16 0.00 0.00
10:53 pm 22:53 Clear 87 30.6 50 10 28 28 SSW 3 6 29.76 1008 10 16 0.00 0.00
11:53 pm 23:53 Clear 81 27.2 51 10.6 35 35 ENE 3 6 29.77 1008 10 16 0.00 0.00

Powered by AerisWeather